RADUGA-1M 2             
1 36358U 10002A   19261.07221080 -.00000188  00000-0  00000+0 0  9994
2 36358   0.0350 243.2237 0001851 347.4428 237.0417  1.00272891 35300
BREEZE-M R/B            
1 36359U 10002B   19260.82989919 -.00000126  00000-0  00000-0 0  9992
2 36359   6.7190  54.5393 0215565 193.7514 356.4621  1.04041675 36581
BREEZE-M DEB [TANK]     
1 36360U 10002C   19259.16436993  .00000017  00000-0 -15118-3 0  9996
2 36360  45.4245 222.6567 7099835 282.2838  12.3705  2.34903474 82103